Location: Newark
(47.4333°N, 19.2500°E)
Time: 02:57:13
(UTC+00:00)

X-37B - Pass Details

Date: 13 March 2021
Orbit: 380 x 394 km, 45.0° (Epoch: 07 April)

Event Time Altitude Azimuth Distance (km) Brightness Sun altitude
Rises 17:20:52 0° 215° (SW) 2,256 4.9 -6.8°
Reaches altitude 10° 17:23:23 10° 194° (SSW) 1,408 3.6 -7.2°
Maximum altitude 17:25:32 17° 151° (SSE) 1,068 2.5 -7.5°
Enters shadow 17:27:41 10° 109° (ESE) 1,411 2.8 -7.9°
